Location: Eimen
(51.8766°N, 9.7806°E)
Time: 09:46:35
(UTC+00:00)

CZ-2C R/B - Pass Details

Date: 23 May 2024
Orbit: 703 x 904 km, 98.2° (Epoch: 23 June)

Event Time Altitude Azimuth Distance (km) Brightness Sun altitude
Rises 01:34:20 0° 15° (NNE) 3,538 8.0 -11.6°
Reaches altitude 10° 01:36:47 10° 18° (NNE) 2,598 7.1 -11.4°
Maximum altitude 01:42:37 72° 103° (ESE) 951 3.5 -10.9°
Drops below altitude 10° 01:48:20 10° 187° (S) 2,544 5.2 -10.4°
Enters shadow 01:48:30 - 188° (S) 2,609 5.2 -10.3°
